This is the latest recevied weather packets stored in our database for station/object PA2JOK. If no packets are shown the sender has not sent any weather packets the latest 10 day(s).
| Time | Temp. | Humidity | Pressure | Rain* | Wind** | Luminosity | Snow |
|---|---|---|---|---|---|---|---|
| 1777164482 | 6.67° C | 79% | 1022.9 hPa | 0 mm | - | - | - |
| 1777163583 | 6.67° C | 79% | 1022.8 hPa | 0 mm | - | - | - |
| 1777162683 | 6.67° C | 79% | 1022.7 hPa | 0 mm | - | - | - |
| 1777161783 | 7.22° C | 81% | 1022.6 hPa | 0 mm | - | - | - |
| 1777160884 | 7.22° C | 81% | 1022.5 hPa | 0 mm | - | - | - |
| 1777159983 | 7.78° C | 81% | 1022.4 hPa | 0 mm | - | - | - |
| 1777159083 | 7.78° C | 80% | 1022.3 hPa | 0 mm | - | - | - |
| 1777158182 | 7.78° C | 79% | 1022.1 hPa | 0 mm | - | - | - |
| 1777157283 | 7.78° C | 78% | 1022.1 hPa | 0 mm | - | - | - |
| 1777156382 | 8.33° C | 78% | 1021.9 hPa | 0 mm | - | - | - |
| 1777155483 | 8.33° C | 77% | 1021.7 hPa | 0 mm | - | - | - |
| 1777154582 | 8.33° C | 76% | 1021.7 hPa | 0 mm | - | - | - |
| 1777153683 | 8.33° C | 75% | 1021.4 hPa | 0 mm | - | - | - |
| 1777152783 | 8.89° C | 74% | 1021.3 hPa | 0 mm | - | - | - |
| 1777151884 | 8.89° C | 73% | 1021.3 hPa | 0 mm | - | - | - |
| 1777150983 | 8.89° C | 72% | 1021.1 hPa | 0 mm | - | - | - |
| 1777150083 | 9.44° C | 69% | 1021 hPa | 0 mm | - | - | - |
| 1777149184 | 10° C | 66% | 1020.9 hPa | 0 mm | - | - | - |
| 1777148282 | 10° C | 64% | 1020.8 hPa | 0 mm | - | - | - |
| 1777147383 | 10.56° C | 61% | 1020.8 hPa | 0 mm | - | - | - |
| 1777146484 | 10.56° C | 57% | 1020.8 hPa | 0 mm | - | - | - |
| 1777145583 | 11.11° C | 54% | 1020.6 hPa | 0 mm | - | - | - |
| 1777144683 | 11.67° C | 51% | 1020.4 hPa | 0 mm | - | - | - |
| 1777143782 | 11.67° C | 48% | 1020.4 hPa | 0 mm | - | - | - |
| 1777142883 | 12.22° C | 46% | 1020.4 hPa | 0 mm | - | - | - |
* Rain latest hour (hover to see other rain measurements)
** Current wind speed in m/s (hover to see current wind gust speed)